Flight Track Log - Related Links

Times and Time Zones

All times are in EDT time to prevent confusion due to time zone crossing. See the SWA1319 flight status page for this flight to view local times or setup timezone preferences in your user account.

Time Position Orientation Groundspeed Altitude Reporting Facility
EDT Latitude Longitude Course Direction KTS MPH feet Rate Location/Type
Sat 12:25:02 AM 37.7167 -122.2333 305° West 144 166 900  Level Northern TRACON
Sat 12:25:31 AM 37.7258 -122.2500 305° West 151 174 1,600 2,267 Climbing Oakland Center
Sat 12:26:32 AM 37.7606 -122.3056 308° West 203 234 4,300 2,656 Climbing Oakland Center
Sat 12:27:33 AM 37.7181 -122.3647 228° Southwest 244 281 7,000 2,754 Climbing Oakland Center
Sat 12:28:34 AM 37.6403 -122.3917 195° South 282 325 9,900 1,918 Climbing Oakland Center
Sat 12:29:35 AM 37.5531 -122.4222 196° South 318 366 10,900 2,311 Climbing Oakland Center
Sat 12:30:36 AM 37.4658 -122.4014 169° South 343 395 14,600 3,443 Climbing Oakland Center
Sat 12:31:37 AM 37.4019 -122.3069 130° Southeast 358 412 17,900 3,197 Climbing Oakland Center
Sat 12:32:38 AM 37.3164 -122.1903 133° Southeast 379 436 21,100 2,852 Climbing Oakland Center
Sat 12:33:39 AM 37.2369 -122.0822 133° Southeast 418 481 23,700 2,557 Climbing Oakland Center
Sat 12:34:40 AM 37.1547 -121.9700 133° Southeast 435 501 26,300 2,852 Climbing Oakland Center
Sat 12:35:41 AM 37.0736 -121.8569 132° Southeast 436 502 29,500 2,508 Climbing Oakland Center
Sat 12:36:42 AM 36.9900 -121.7494 134° Southeast 434 499 31,400 1,967 Climbing Oakland Center
Sat 12:37:43 AM 36.9056 -121.6361 133° Southeast 445 512 33,500 2,016 Climbing Oakland Center
Sat 12:38:44 AM 36.8144 -121.5131 133° Southeast 448 516 35,500 1,770 Climbing Oakland Center
Sat 12:39:45 AM 36.7289 -121.3986 133° Southeast 451 519 37,100 1,636 Climbing Oakland Center
Sat 12:40:45 AM 36.6450 -121.2842 132° Southeast 449 517 38,800 942 Climbing Oakland Center
Sat 12:41:46 AM 36.5589 -121.1697 133° Southeast 452 520 39,000 98 Climbing Oakland Center
Sat 12:42:47 AM 36.4750 -121.0569 133° Southeast 446 513 39,000 -98 Level Oakland Center
Sat 12:43:48 AM 36.3897 -120.9469 134° Southeast 442 509 38,800 -590 Descending Oakland Center
Sat 12:44:49 AM 36.3058 -120.8347 133° Southeast 443 510 37,800 -885 Descending Oakland Center
Sat 12:45:50 AM 36.2206 -120.7228 133° Southeast 445 512 37,000 -393 Descending Oakland Center
Sat 12:46:51 AM 36.1350 -120.6119 134° Southeast 444 511 37,000  Level Oakland Center
Sat 12:47:52 AM 36.0497 -120.4972 133° Southeast 450 518 37,000  Level Oakland Center
Sat 12:48:53 AM 35.9625 -120.3844 134° Southeast 451 519 37,000  Level Oakland Center
Sat 12:49:53 AM 35.8747 -120.2722 134° Southeast 451 519 37,000  Level Oakland Center
Sat 12:50:54 AM 35.7872 -120.1597 134° Southeast 452 520 37,000  Level Oakland Center
Sat 12:51:55 AM 35.6983 -120.0456 134° Southeast 455 524 37,000  Level Oakland Center
Sat 12:52:56 AM 35.6039 -119.9403 138° Southeast 454 522 37,000  Level Oakland Center
Sat 12:53:57 AM 35.4992 -119.8506 145° Southeast 452 520 37,000  Level Oakland Center
Sat 12:54:58 AM 35.3742 -119.7436 145° Southeast 453 521 37,000  Level Oakland Center
Sat 12:55:21 AM 35.3539 -119.7256 144° Southeast 455 524 37,000  Level Los Center
Sat 12:56:34 AM 35.2494 -119.6364 145° Southeast 456 525 37,000 -1,511 Level Los Center
Sat 12:57:36 AM 35.1028 -119.5108 145° Southeast 457 526 33,600 -2,878 Descending Los Center
Sat 12:58:37 AM 35.0011 -119.4253 145° Southeast 449 517 31,100 -1,918 Descending Los Center
Sat 12:59:38 AM 34.8997 -119.3369 144° Southeast 447 514 29,700 -1,869 Descending Los Center
Sat 01:00:39 AM 34.7983 -119.2517 145° Southeast 442 509 27,300 -2,293 Descending Los Center
Sat 01:01:41 AM 34.7028 -119.1706 145° Southeast 425 489 25,000 -2,195 Descending Los Center
Sat 01:02:42 AM 34.6111 -119.0958 146° Southeast 417 480 22,800 -2,213 Descending Los Center
Sat 01:03:43 AM 34.5225 -119.0192 145° Southeast 392 451 20,500 -2,410 Descending Los Center
Sat 01:04:44 AM 34.4175 -118.9331 146° Southeast 380 437 17,900 -2,293 Descending Los Center
Sat 01:05:46 AM 34.3294 -118.8708 150° Southeast 369 425 15,800 -2,000 Descending Los Center
Sat 01:06:59 AM 34.2342 -118.8358 163° South 357 411 13,400 -2,044 Descending Los Center
Sat 01:08:01 AM 34.1239 -118.7958 163° South 346 398 11,200 -1,659 Descending Los Center
Sat 01:09:02 AM 34.0439 -118.7492 154° Southeast 304 350 10,000 -590 Descending Los Center
Sat 01:10:03 AM 34.0286 -118.6536 101° East 260 299 10,000 -197 Level Los Center
Sat 01:11:04 AM 34.0228 -118.5897 96° East 251 289 9,600 -634 Descending Los Center
Sat 01:12:06 AM 34.0133 -118.4908 97° East 241 277 8,700 -780 Descending Los Center
Sat 01:13:07 AM 34.0122 -118.4306 91° East 216 249 8,000 -836 Descending Los Center
Sat 01:14:08 AM 34.0200 -118.3639 82° East 205 236 7,000 -1,220 Descending Los Center
Sat 01:15:10 AM 34.0272 -118.2833 84° East 201 231 5,500 -1,463 Descending Los Center
Sat 01:16:11 AM 34.0319 -118.2167 85° East 200 230 4,000 -1,230 Descending Los Center
Sat 01:17:12 AM 33.9844 -118.2161 179° South 199 229 3,000 -829 Descending Los Center
Sat 01:18:14 AM 33.9658 -118.2669 246° West 176 203 2,300 -634 Descending Los Center
Sat 01:19:15 AM 33.9603 -118.3178 263° West 162 186 1,700 -689 Descending Los Center
Sat 01:20:16 AM 33.9572 -118.3631 265° West 149 171 900 -787 Descending Los Center
Sat 01:21:17 AM 33.9525 -118.4053 262° West 137 158 100 -787 Descending Los Center
Sat 01:23:00 AM 33.9425 -118.4081 228° Southwest  Level Estimated

Login

Don't have an account? Register now (free) for customized features, flight alerts, and more!